ROMMA est une association bénévole à but non lucratif. Votre soutien est indispensable : ADHERER à ROMMA ou FAIRE un DON

Briord - (01, Ain)

Bugey (281 m)   Longitude: 05° 29' 13" E   Latitude: 45° 46' 37" N Station partenaire n°15
 

Détail journalier du     <<     >>

Température Precipitation Humidité Pression Vent Dir Rafale Dir. rafale Ensol.
Heure (°C) (mm) (%) (hPa) (km/h) (km/h) (min)
01:00 -0.1091103000---0
02:00 -0.2091103000---0
03:00 -0.4092103000---0
04:00 -0.6092103000---0
05:00 -0.5092103000---0
06:00 -0.3092103000---0
07:00 -0.1091102900---0
08:00 -0.2091103006NNE0
09:00 -0.1092103000---0
10:00 0.5091103000---0
11:00 1.5089103000---0
12:00 2.6087103002OSO0
13:00 3.2085102902O10
14:00 3.6086102902NO0
15:00 4.4086102805O0
16:00 4.4087102803ONO10
17:00 4.408910291ONO11ONO0
18:00 3.7089102805ONO0
19:00 2.80901029013S0
20:00 2.4091102800---0
21:00 2.3092102800---0
22:00 2.4092102700---0
23:00 2.30.293102700---0
minuit 2.30.894102700---0

Graphique du 12-01-2019

 

Serveur OMMA